Location: Fiennes
(50.8274°N, 1.8253°E)
Time: 03:04:04
(UTC+00:00)

Terra - Pass Details

Date: 15 May 2026
Orbit: 689 x 690 km, 97.9° (Epoch: 8 June)

Event Time Altitude Azimuth Distance (km) Brightness Sun altitude
Rises 21:25:25 0° 210° (SSW) 3,051 4.9 -13.3°
Reaches altitude 10° 21:28:25 10° 231° (SW) 2,141 4.3 -13.6°
Maximum altitude 21:31:27 17° 272° (W) 1,723 4.3 -13.9°
Drops below altitude 10° 21:34:30 10° 312° (NW) 2,153 5.6 -14.1°
Sets 21:37:32 0° 333° (NNW) 3,076 7.1 -14.4°
